CZ-6A DEB

Satellite information

Favourite Embed

Satellite Type and Status

DEBRISIN ORBIT

Key statistics

Satellite CZ-6A DEB at a glance.

Uptime

912

Days in orbit

Revolutions

≈ 14.4

Per day

Orbit

SSO

Sun Synchronous Orbit

Inclination

98.7

Latest

Satellite identification and parameters

Extended collection of information and parameters for CZ-6A DEB.

Object identification

Identified? True

Debris? True

Object name: CZ-6A DEB

International designator: 2022-151QE

Object number (NORAD): 54893

Object ID (CCSDS): 54893

Country: PEOPLES REPUBLIC OF CHINA (PRC)

Current information (Y/N): Y

RCS size: SMALL

Orbital parameters

Period: 99.765 minutes

Inclination: 98.6562 deg

SMA: 7125.46 km

Apoapsis: 798.337 km

Periapsis: 696.313 km

RAAN: 162.8165 deg

Eccentricy: 0.0071591

Argument of periapsis: 58.0931 deg

Mean anomaly: 302.7197 deg

Mean motion: 14.43389001 rev/day

Mean motion (dot): 0.00003362 rev/day2

B* drag term: 0.00097886 1/REarth

Two-line elements (TLE)

Creation date: May 10, 2025, 5:27 p.m.

Reference frame: TEME

Reference center: EARTH

Epoch: May 10, 2025, 8:16 a.m. UTC

TLE line 0: 0 CZ-6A DEB

TLE line 1: 1 54893U 22151QE 25130.34473368 .00003362 00000-0 97886-3 0 9994

TLE line 2: 2 54893 98.6562 162.8165 0071591 58.0931 302.7197 14.43389001128042

Live tracking on map

Real-time ground track for satellite CZ-6A DEB.

In-orbit conjunctions

A list of the most updated potential collisions computed for object CZ-6A DEB.

Target Orbit TCA Probability of collision Miss distance Type
METEOR 2-5 DEB LEO 2025-02-01 14:48:55 0.001161857 30.0 (m) DEBRIS
CZ-6A DEB LEO 2024-09-18 07:57:17 0.0001028446 578.0 (m) DEBRIS

Associated space launch

Chinese satellite reported for atmospheric/ocean/environmental/spatial parameter research purposes, details TBD.

CZ-6A DEB was lifted into orbit during the mission ‘Long March 6A | Yunhai 3’, on board a Long March 6A space rocket.

The launch took place on Nov. 11, 2022, 10:52 p.m. from Launch Complex 9A.

For more information about the launch, click the button.

Launch to space Long March 6A | Yunhai 3
Long March 6A | Yunhai 3

Agency: N/A

Status: Launch Successful

Launch date: Nov. 11, 2022, 10:52 p.m. UTC

Rocket: Long March 6A

Launch pad: Launch Complex 9A

Location: Taiyuan Satellite Launch Center, People's Republic of China

...

Latest news about this satellite

There are no fresh news available about this satellite. Check back as we update our databases every day.


Newsletter sign-up

Weekly statistics, charts and insights to help you stay on top of the space industry.